When you browse on this site, cookies collect data to enhance your experience and personalize the content and advertising you see.
Visit our Privacy Policy to learn more. By continuing to use the site, you agree to this use of cookies and data.
  • En España
  • Lista de países
  • Para 7 días
  • Temperatura del agua
  • El tiempo en el mapa
  • Informadores
  • user-avatar
    Iniciar sesión

    Tiempo cada hora Ostrava

    Hoy, 6 Junio, Sábado

    Tiempo Temperatura Precipitaciones Viento Presión Humedad
    00:00 +11°C° 0 mm 3 mps 734 mmHg 90%
    01:00 +12°C° 0 mm 4 mps 734 mmHg 90%
    02:00 +12°C° 0 mm 4 mps 734 mmHg 90%
    03:00 +12°C° 0 mm 4 mps 734 mmHg 90%
    04:00 +12°C° 0 mm 4 mps 735 mmHg 90%
    05:00 +13°C° 0 mm 4 mps 735 mmHg 85%
    06:00 +14°C° 0 mm 4 mps 735 mmHg 80%
    07:00 +17°C° 0 mm 4 mps 735 mmHg 75%
    08:00 +17°C° 0 mm 5 mps 736 mmHg 70%
    09:00 +20°C° 0 mm 5 mps 736 mmHg 65%
    10:00 +21°C° 0 mm 6 mps 736 mmHg 59%
    11:00 +22°C° 0 mm 5 mps 736 mmHg 58%
    12:00 +23°C° 0 mm 5 mps 736 mmHg 57%
    13:00 +25°C° 0 mm 5 mps 736 mmHg 56%
    14:00 +25°C° 0.1 mm 5 mps 736 mmHg 57%
    15:00 +25°C° 0.1 mm 5 mps 736 mmHg 58%
    16:00 +26°C° 0.1 mm 4 mps 735 mmHg 59%
    17:00 +24°C° 0.1 mm 3 mps 736 mmHg 65%
    18:00 +22°C° 0.1 mm 3 mps 736 mmHg 71%
    19:00 +20°C° 0.1 mm 2 mps 736 mmHg 76%
    20:00 +19°C° 0.3 mm 2 mps 736 mmHg 80%
    21:00 +19°C° 0.3 mm 1 mps 736 mmHg 85%
    22:00 +16°C° 0.3 mm 1 mps 736 mmHg 89%
    23:00 +16°C° 0.1 mm 1 mps 736 mmHg 90%

    Mañana, 7 Junio, Domingo

    Tiempo Temperatura Precipitaciones Viento Presión Humedad
    00:00 +16°C° 0.1 mm 1 mps 737 mmHg 91%
    01:00 +15°C° 0.1 mm 1 mps 737 mmHg 92%
    02:00 +15°C° 0.1 mm 1 mps 737 mmHg 92%
    03:00 +15°C° 0.1 mm 1 mps 737 mmHg 92%
    04:00 +15°C° 0.1 mm 1 mps 736 mmHg 93%
    05:00 +16°C° 0.1 mm 1 mps 736 mmHg 90%
    06:00 +18°C° 0.1 mm 1 mps 736 mmHg 87%
    07:00 +18°C° 0.1 mm 0 mps 736 mmHg 83%
    08:00 +21°C° 0.4 mm 1 mps 736 mmHg 81%
    09:00 +22°C° 0.4 mm 1 mps 737 mmHg 78%
    10:00 +23°C° 0.4 mm 2 mps 737 mmHg 75%
    11:00 +24°C° 1 mm 2 mps 736 mmHg 73%
    12:00 +25°C° 1 mm 2 mps 736 mmHg 71%
    13:00 +25°C° 1 mm 2 mps 736 mmHg 69%
    14:00 +25°C° 1.7 mm 2 mps 736 mmHg 71%
    15:00 +25°C° 1.7 mm 1 mps 735 mmHg 72%
    16:00 +25°C° 1.7 mm 1 mps 735 mmHg 74%
    17:00 +23°C° 1.2 mm 1 mps 735 mmHg 77%
    18:00 +22°C° 1.2 mm 1 mps 735 mmHg 81%
    19:00 +20°C° 1.2 mm 2 mps 735 mmHg 84%
    20:00 +19°C° 1 mm 2 mps 735 mmHg 87%
    21:00 +18°C° 1 mm 2 mps 735 mmHg 90%
    22:00 +17°C° 1 mm 2 mps 735 mmHg 94%
    23:00 +17°C° 0.9 mm 2 mps 735 mmHg 95%

    Pasado mañana, 8 Junio, Lunes

    Tiempo Temperatura Precipitaciones Viento Presión Humedad
    00:00 +17°C° 0.9 mm 2 mps 735 mmHg 96%
    01:00 +17°C° 0.9 mm 2 mps 735 mmHg 97%
    02:00 +16°C° 0.5 mm 2 mps 735 mmHg 97%
    03:00 +16°C° 0.5 mm 2 mps 735 mmHg 97%
    04:00 +16°C° 0.5 mm 3 mps 735 mmHg 96%
    05:00 +16°C° 0.2 mm 3 mps 736 mmHg 96%
    06:00 +14°C° 0.2 mm 3 mps 736 mmHg 95%
    07:00 +14°C° 0.2 mm 3 mps 736 mmHg 95%
    08:00 +13°C° 0.2 mm 3 mps 737 mmHg 95%
    09:00 +13°C° 0.2 mm 4 mps 737 mmHg 94%
    10:00 +13°C° 0.2 mm 4 mps 738 mmHg 94%
    11:00 +13°C° 0.1 mm 4 mps 738 mmHg 94%
    12:00 +12°C° 0.1 mm 4 mps 738 mmHg 93%
    13:00 +12°C° 0.1 mm 4 mps 738 mmHg 93%
    14:00 +12°C° 0 mm 4 mps 738 mmHg 92%
    15:00 +13°C° 0 mm 4 mps 738 mmHg 92%
    16:00 +13°C° 0 mm 3 mps 739 mmHg 91%
    17:00 +13°C° 0 mm 3 mps 739 mmHg 92%
    18:00 +12°C° 0 mm 3 mps 739 mmHg 92%
    19:00 +12°C° 0 mm 3 mps 739 mmHg 92%
    20:00 +13°C° 0 mm 2 mps 739 mmHg 93%
    21:00 +13°C° 0 mm 2 mps 740 mmHg 93%
    22:00 +13°C° 0 mm 2 mps 740 mmHg 94%
    23:00 +13°C° 0 mm 2 mps 740 mmHg 94%

    9 Junio, Martes

    Tiempo Temperatura Precipitaciones Viento Presión Humedad
    00:00 +13°C° 0 mm 2 mps 740 mmHg 94%
    01:00 +13°C° 0 mm 2 mps 740 mmHg 94%
    02:00 +12°C° 0 mm 3 mps 740 mmHg 94%
    03:00 +12°C° 0 mm 3 mps 740 mmHg 94%
    04:00 +12°C° 0 mm 3 mps 740 mmHg 94%
    05:00 +12°C° 0 mm 3 mps 740 mmHg 94%
    06:00 +12°C° 0 mm 3 mps 740 mmHg 94%
    07:00 +12°C° 0 mm 3 mps 740 mmHg 94%
    08:00 +13°C° 0 mm 3 mps 741 mmHg 91%
    09:00 +14°C° 0 mm 3 mps 741 mmHg 88%
    10:00 +14°C° 0 mm 3 mps 741 mmHg 85%
    11:00 +16°C° 0 mm 3 mps 741 mmHg 82%
    12:00 +17°C° 0 mm 3 mps 740 mmHg 80%
    13:00 +18°C° 0 mm 3 mps 740 mmHg 77%
    14:00 +18°C° 0 mm 3 mps 740 mmHg 78%
    15:00 +18°C° 0 mm 4 mps 740 mmHg 78%
    16:00 +18°C° 0 mm 4 mps 740 mmHg 79%
    17:00 +18°C° 0 mm 3 mps 740 mmHg 82%
    18:00 +17°C° 0 mm 3 mps 740 mmHg 84%
    19:00 +16°C° 0 mm 3 mps 740 mmHg 87%
    20:00 +16°C° 0 mm 3 mps 740 mmHg 88%
    21:00 +16°C° 0 mm 3 mps 740 mmHg 89%
    22:00 +14°C° 0 mm 3 mps 741 mmHg 90%
    23:00 +14°C° 0 mm 3 mps 740 mmHg 91%

    10 Junio, Miércoles

    Tiempo Temperatura Precipitaciones Viento Presión Humedad
    00:00 +14°C° 0 mm 3 mps 740 mmHg 92%
    01:00 +15°C° 0 mm 2 mps 740 mmHg 94%
    02:00 +15°C° 0 mm 2 mps 740 mmHg 94%
    03:00 +14°C° 0 mm 2 mps 740 mmHg 95%
    04:00 +14°C° 0 mm 2 mps 740 mmHg 96%
    05:00 +14°C° 0 mm 3 mps 740 mmHg 93%
    06:00 +16°C° 0 mm 3 mps 740 mmHg 91%
    07:00 +16°C° 0 mm 3 mps 739 mmHg 89%
    08:00 +17°C° 0.1 mm 3 mps 739 mmHg 86%
    09:00 +18°C° 0.1 mm 4 mps 739 mmHg 83%
    10:00 +19°C° 0.1 mm 4 mps 739 mmHg 79%
    11:00 +19°C° 0.1 mm 4 mps 739 mmHg 78%
    12:00 +19°C° 0.1 mm 4 mps 739 mmHg 77%
    13:00 +20°C° 0.1 mm 5 mps 738 mmHg 76%
    14:00 +20°C° 0.2 mm 4 mps 738 mmHg 78%
    15:00 +19°C° 0.2 mm 4 mps 738 mmHg 79%
    16:00 +19°C° 0.2 mm 3 mps 738 mmHg 81%
    17:00 +19°C° 0.2 mm 3 mps 737 mmHg 84%
    18:00 +18°C° 0.2 mm 3 mps 737 mmHg 88%
    19:00 +17°C° 0.2 mm 3 mps 737 mmHg 91%
    20:00 +17°C° 0 mm 3 mps 737 mmHg 92%
    21:00 +17°C° 0 mm 3 mps 737 mmHg 94%
    22:00 +16°C° 0 mm 2 mps 737 mmHg 95%
    23:00 +16°C° 0 mm 2 mps 737 mmHg 96%

    11 Junio, Jueves

    Tiempo Temperatura Precipitaciones Viento Presión Humedad
    00:00 +16°C° 0 mm 2 mps 737 mmHg 96%
    01:00 +15°C° 0 mm 2 mps 736 mmHg 97%
    02:00 +15°C° 0 mm 2 mps 736 mmHg 97%
    03:00 +15°C° 0 mm 2 mps 736 mmHg 97%
    04:00 +15°C° 0 mm 2 mps 736 mmHg 97%
    05:00 +16°C° 0 mm 2 mps 736 mmHg 96%
    06:00 +16°C° 0 mm 2 mps 736 mmHg 95%
    07:00 +17°C° 0 mm 2 mps 736 mmHg 94%
    08:00 +18°C° 0 mm 2 mps 736 mmHg 91%
    09:00 +18°C° 0 mm 2 mps 736 mmHg 89%
    10:00 +19°C° 0 mm 2 mps 736 mmHg 86%
    11:00 +20°C° 0 mm 2 mps 736 mmHg 82%
    12:00 +21°C° 0 mm 2 mps 736 mmHg 79%
    13:00 +24°C° 0 mm 2 mps 736 mmHg 75%
    14:00 +24°C° 0.3 mm 2 mps 736 mmHg 76%
    15:00 +24°C° 0.3 mm 2 mps 735 mmHg 77%
    16:00 +24°C° 0.3 mm 2 mps 735 mmHg 77%
    17:00 +23°C° 0.8 mm 2 mps 735 mmHg 81%
    18:00 +21°C° 0.8 mm 2 mps 735 mmHg 85%
    19:00 +20°C° 0.8 mm 2 mps 735 mmHg 89%
    20:00 +20°C° 2 mm 2 mps 735 mmHg 91%
    21:00 +19°C° 2 mm 2 mps 735 mmHg 93%
    22:00 +18°C° 2 mm 2 mps 735 mmHg 95%
    23:00 +17°C° 0.3 mm 2 mps 735 mmHg 96%
    Mostrar más